SCOUT A DEB, 3122

Orbit data source: Space-Track

SCOUT A DEB, 3122 is space debris in LEO originally from a launch on Mon, 25 Sep 1967 UTC launched from the Air Force Western Test Range (AFWTR). Debris objects in space refer to the collection of defunct objects orbiting the Earth. Examples of debris include non-operational satellites, rocket bodies, and fragments generated from explosions, collisions, or faulty payload assembly.

Loading next visibility...
Identifier
3122, 1967-092D
Orbit
LEO
Last TLE update
1 day ago
Origin
Manufacturer
Unknown
Mission
Spacecraft
Bus & Motor
Unknown
Mass
Unknown
Launch date (UTC)
1967-09-25 (58 years ago)
Launch vehicle
Unknown
Launch site
Air Force Western Test Range (AFWTR)
Object type
Payload
Rocket body
Debris
Shape & HBR
Unknown
Radar Cross Section
Small (<0.1 m²)

Expand to show TLE details & history

TLE from 1 day ago
0 SCOUT A DEB
1 03122U 67092D   25138.20684037  .00000253  00000-0  50647-3 0  9996
2 03122  89.0701 123.9811 0183746 239.1623 138.7173 13.25795341530687
Epoch: 2025-05-18T04:57Z
TLE epoch observation values (Epoch: 2025-05-18T04:57:51.007Z)
Latitude
19.23876°
Longitude
173.70438°
Altitude
1,270.349 km
Speed
7.171 km/s
True Right ascension
08h 17m 12s
True Declination
19° 08' 21"
Sunlit
Object was in daylight at epoch
Visualization orbit readout
Latitude
39.19588°
Longitude
174.02029°
Altitude
1,300.903 km
Speed
7.146 km/s
Apparent Right ascension
08h 28m 31s
Apparent Declination
4° 00' 42"
Sunlit
Object is in daylight
Visualization observer readout
Local Sidereal Time
20:40:44
Azimuth
4.387° NNE
Elevation
-45.983°
Doppler factor
1
Orbital elements
Apogee altitude
1,298.256 km
Perigee altitude
1,021.245 km
Semi-major axis
7,537.888 km
Eccentricity
0.01837
Inclination
89.0701°
RAAN
123.9811°
Arg. of periapsis
239.1623°
True anomaly
Unknown
Mean anomaly
138.7173°
Eccentric anomaly
Unknown
Mean motion
3.31641 °/min
Orbital period
108.55 mins
BSTAR
0.00050647
Loading maneuver chart data...
Loading SW <> Apogee altitude chart data...
Loading historical data...
Loading historical data...
Loading historical data...
Loading historical data...
Loading historical data...
Loading historical data...
Loading historical data...

SCOUT A DEB Visibility forecast

Observer location: undefined°, undefined°

Span
Click to sort rows by Start time (UTC) header in descending order
Start Az.
Max El. time (UTC)
Max El. Az.
Max El.
End time (UTC)
End Az.
11 mins2025-05-19 12:16:35.534Z341.539° N2025-05-19 12:22:35.534Z279.647° WNW29.595°2025-05-19 12:27:35.534Z225.024° WSW
12 mins2025-05-19 22:38:35.534Z146.052° SSE2025-05-19 22:44:35.534Z71.65° E36.303°2025-05-19 22:50:35.534Z12.94° NNE
12 mins2025-05-20 00:27:35.534Z223.751° SW2025-05-20 00:32:35.534Z275.206° WNW29.076°2025-05-20 00:39:35.534Z340.785° N
10 mins2025-05-20 10:01:35.534Z27.867° NE2025-05-20 10:06:35.534Z78.406° E25.075°2025-05-20 10:11:35.534Z131.275° SE
|